When you browse on this site, cookies collect data to enhance your experience and personalize the content and advertising you see.
Visit our Privacy Policy to learn more. By continuing to use the site, you agree to this use of cookies and data.
  • In Hungary
  • List of Countries
  • For 7 days
  • Water Temperature
  • Weather Map
  • News
  • Weather Widgets
  • user-avatar
    Login

    Hourly Weather Bessergenovka

    Today, 19 October, Saturday

    Time Temperature Precipitation Wind Pressure Humidity
    00:00 +15°C° 0 mm 2 mps 761 mmHg 79%
    01:00 +14°C° 0 mm 2 mps 761 mmHg 79%
    02:00 +14°C° 0 mm 2 mps 761 mmHg 79%
    03:00 +13°C° 0 mm 1 mps 761 mmHg 77%
    04:00 +13°C° 0 mm 1 mps 761 mmHg 77%
    05:00 +13°C° 0 mm 1 mps 761 mmHg 76%
    06:00 +12°C° 0 mm 1 mps 761 mmHg 75%
    07:00 +13°C° 0 mm 2 mps 762 mmHg 71%
    08:00 +14°C° 0 mm 2 mps 762 mmHg 66%
    09:00 +15°C° 0 mm 2 mps 762 mmHg 59%
    10:00 +17°C° 0 mm 2 mps 762 mmHg 55%
    11:00 +18°C° 0 mm 2 mps 762 mmHg 50%
    12:00 +20°C° 0 mm 2 mps 762 mmHg 46%
    13:00 +20°C° 0 mm 2 mps 762 mmHg 44%
    14:00 +21°C° 0 mm 2 mps 762 mmHg 42%
    15:00 +21°C° 0 mm 2 mps 762 mmHg 40%
    16:00 +20°C° 0 mm 2 mps 762 mmHg 44%
    17:00 +19°C° 0 mm 2 mps 762 mmHg 47%
    18:00 +18°C° 0 mm 2 mps 762 mmHg 51%
    19:00 +18°C° 0 mm 2 mps 762 mmHg 53%
    20:00 +17°C° 0 mm 2 mps 763 mmHg 56%
    21:00 +16°C° 0 mm 2 mps 763 mmHg 59%
    22:00 +16°C° 0 mm 2 mps 763 mmHg 60%
    23:00 +14°C° 0 mm 3 mps 763 mmHg 62%

    Tomorrow, 20 October, Sunday

    Time Temperature Precipitation Wind Pressure Humidity
    00:00 +14°C° 0 mm 3 mps 763 mmHg 64%
    01:00 +14°C° 0 mm 3 mps 763 mmHg 66%
    02:00 +13°C° 0 mm 3 mps 764 mmHg 67%
    03:00 +13°C° 0 mm 3 mps 764 mmHg 69%
    04:00 +12°C° 0 mm 3 mps 764 mmHg 70%
    05:00 +12°C° 0 mm 3 mps 764 mmHg 71%
    06:00 +12°C° 0 mm 3 mps 764 mmHg 72%
    07:00 +13°C° 0 mm 3 mps 764 mmHg 68%
    08:00 +14°C° 0 mm 4 mps 765 mmHg 65%
    09:00 +15°C° 0 mm 4 mps 765 mmHg 62%
    10:00 +17°C° 0 mm 4 mps 765 mmHg 57%
    11:00 +19°C° 0 mm 4 mps 765 mmHg 52%
    12:00 +20°C° 0 mm 4 mps 765 mmHg 46%
    13:00 +21°C° 0 mm 4 mps 765 mmHg 45%
    14:00 +22°C° 0 mm 4 mps 764 mmHg 43%
    15:00 +22°C° 0 mm 4 mps 764 mmHg 42%
    16:00 +21°C° 0 mm 4 mps 764 mmHg 46%
    17:00 +20°C° 0 mm 4 mps 764 mmHg 50%
    18:00 +19°C° 0 mm 4 mps 764 mmHg 54%
    19:00 +18°C° 0 mm 4 mps 765 mmHg 56%
    20:00 +17°C° 0 mm 4 mps 765 mmHg 58%
    21:00 +17°C° 0 mm 4 mps 765 mmHg 60%
    22:00 +15°C° 0 mm 4 mps 765 mmHg 62%
    23:00 +15°C° 0 mm 4 mps 765 mmHg 64%

    Day after tomorrow, 21 October, Monday

    Time Temperature Precipitation Wind Pressure Humidity
    00:00 +14°C° 0 mm 4 mps 765 mmHg 66%
    01:00 +14°C° 0 mm 4 mps 765 mmHg 67%
    02:00 +13°C° 0 mm 4 mps 765 mmHg 68%
    03:00 +13°C° 0 mm 4 mps 765 mmHg 70%
    04:00 +13°C° 0 mm 4 mps 765 mmHg 72%
    05:00 +12°C° 0 mm 4 mps 765 mmHg 73%
    06:00 +12°C° 0 mm 4 mps 766 mmHg 75%
    07:00 +13°C° 0 mm 4 mps 766 mmHg 73%
    08:00 +14°C° 0 mm 5 mps 766 mmHg 71%
    09:00 +14°C° 0 mm 5 mps 766 mmHg 69%
    10:00 +16°C° 0 mm 5 mps 766 mmHg 62%
    11:00 +17°C° 0 mm 5 mps 766 mmHg 56%
    12:00 +20°C° 0 mm 5 mps 766 mmHg 49%
    13:00 +20°C° 0 mm 4 mps 766 mmHg 47%
    14:00 +21°C° 0 mm 4 mps 765 mmHg 45%
    15:00 +21°C° 0 mm 4 mps 765 mmHg 44%
    16:00 +20°C° 0 mm 4 mps 765 mmHg 48%
    17:00 +19°C° 0 mm 4 mps 765 mmHg 51%
    18:00 +18°C° 0 mm 3 mps 765 mmHg 55%
    19:00 +17°C° 0 mm 3 mps 765 mmHg 57%
    20:00 +17°C° 0 mm 3 mps 765 mmHg 59%
    21:00 +16°C° 0 mm 3 mps 765 mmHg 62%
    22:00 +14°C° 0 mm 3 mps 765 mmHg 64%
    23:00 +14°C° 0 mm 3 mps 765 mmHg 66%

    22 October, Tuesday

    Time Temperature Precipitation Wind Pressure Humidity
    00:00 +13°C° 0 mm 3 mps 765 mmHg 68%
    01:00 +13°C° 0 mm 3 mps 765 mmHg 69%
    02:00 +13°C° 0 mm 3 mps 765 mmHg 71%
    03:00 +13°C° 0 mm 2 mps 765 mmHg 72%
    04:00 +13°C° 0 mm 2 mps 765 mmHg 73%
    05:00 +13°C° 0 mm 2 mps 765 mmHg 73%
    06:00 +12°C° 0 mm 2 mps 765 mmHg 73%
    07:00 +13°C° 0 mm 2 mps 765 mmHg 69%
    08:00 +14°C° 0 mm 2 mps 765 mmHg 65%
    09:00 +15°C° 0 mm 2 mps 766 mmHg 61%
    10:00 +16°C° 0 mm 2 mps 766 mmHg 56%
    11:00 +18°C° 0 mm 2 mps 765 mmHg 51%
    12:00 +19°C° 0 mm 2 mps 765 mmHg 46%
    13:00 +20°C° 0 mm 2 mps 765 mmHg 43%
    14:00 +20°C° 0 mm 2 mps 765 mmHg 41%
    15:00 +21°C° 0 mm 2 mps 765 mmHg 39%
    16:00 +20°C° 0 mm 2 mps 765 mmHg 42%
    17:00 +19°C° 0 mm 2 mps 765 mmHg 45%
    18:00 +18°C° 0 mm 2 mps 765 mmHg 48%
    19:00 +18°C° 0 mm 2 mps 765 mmHg 49%
    20:00 +17°C° 0 mm 2 mps 765 mmHg 50%
    21:00 +18°C° 0 mm 1 mps 765 mmHg 51%
    22:00 +16°C° 0 mm 1 mps 765 mmHg 53%
    23:00 +16°C° 0 mm 1 mps 765 mmHg 54%

    23 October, Wednesday

    Time Temperature Precipitation Wind Pressure Humidity
    00:00 +15°C° 0 mm 1 mps 765 mmHg 56%
    01:00 +15°C° 0 mm 1 mps 765 mmHg 56%
    02:00 +15°C° 0 mm 1 mps 765 mmHg 57%
    03:00 +14°C° 0 mm 0 mps 765 mmHg 58%
    04:00 +14°C° 0 mm 1 mps 765 mmHg 59%
    05:00 +14°C° 0 mm 1 mps 765 mmHg 60%
    06:00 +14°C° 0 mm 1 mps 765 mmHg 60%
    07:00 +15°C° 0 mm 1 mps 765 mmHg 58%
    08:00 +16°C° 0 mm 1 mps 766 mmHg 55%
    09:00 +18°C° 0 mm 1 mps 766 mmHg 53%
    10:00 +19°C° 0 mm 1 mps 766 mmHg 49%
    11:00 +20°C° 0 mm 1 mps 765 mmHg 46%
    12:00 +21°C° 0 mm 1 mps 765 mmHg 43%
    13:00 +22°C° 0 mm 1 mps 765 mmHg 42%
    14:00 +22°C° 0 mm 1 mps 765 mmHg 40%
    15:00 +23°C° 0 mm 1 mps 765 mmHg 39%
    16:00 +22°C° 0 mm 1 mps 765 mmHg 42%
    17:00 +21°C° 0 mm 1 mps 764 mmHg 45%
    18:00 +20°C° 0 mm 1 mps 764 mmHg 48%
    19:00 +19°C° 0 mm 1 mps 764 mmHg 49%
    20:00 +19°C° 0 mm 1 mps 765 mmHg 51%
    21:00 +18°C° 0 mm 1 mps 765 mmHg 52%
    22:00 +18°C° 0 mm 1 mps 765 mmHg 54%
    23:00 +16°C° 0 mm 1 mps 765 mmHg 56%

    24 October, Thursday

    Time Temperature Precipitation Wind Pressure Humidity
    00:00 +16°C° 0 mm 1 mps 764 mmHg 57%
    01:00 +16°C° 0 mm 1 mps 764 mmHg 58%
    02:00 +15°C° 0 mm 1 mps 764 mmHg 60%
    03:00 +15°C° 0 mm 1 mps 764 mmHg 61%
    04:00 +15°C° 0 mm 1 mps 764 mmHg 62%
    05:00 +14°C° 0 mm 1 mps 764 mmHg 63%
    06:00 +14°C° 0 mm 1 mps 764 mmHg 64%
    07:00 +15°C° 0 mm 1 mps 764 mmHg 62%
    08:00 +16°C° 0 mm 2 mps 765 mmHg 59%
    09:00 +16°C° 0 mm 2 mps 765 mmHg 56%
    10:00 +18°C° 0 mm 2 mps 765 mmHg 52%
    11:00 +19°C° 0 mm 2 mps 765 mmHg 48%
    12:00 +20°C° 0 mm 2 mps 764 mmHg 44%
    13:00 +21°C° 0 mm 2 mps 764 mmHg 42%
    14:00 +21°C° 0 mm 2 mps 764 mmHg 41%
    15:00 +23°C° 0 mm 2 mps 763 mmHg 39%
    16:00 +21°C° 0 mm 2 mps 763 mmHg 42%
    17:00 +20°C° 0 mm 2 mps 763 mmHg 44%
    18:00 +19°C° 0 mm 2 mps 763 mmHg 47%
    19:00 +18°C° 0 mm 2 mps 763 mmHg 48%
    20:00 +18°C° 0 mm 2 mps 764 mmHg 50%
    21:00 +17°C° 0 mm 2 mps 764 mmHg 51%
    22:00 +17°C° 0 mm 2 mps 764 mmHg 53%
    23:00 +16°C° 0 mm 2 mps 763 mmHg 54%
    Show more